Home > Weather > Taunton > Past weeks

Flag for United Kingdom Past Weather in Taunton, England, United Kingdom — Yesterday and Last 2 Weeks

Now
66 °F

Partly sunny.


Feels Like: 66 °F
Forecast: 55 / 68 °F
Wind: 12 mph from North

Location: Yeovilton

Current Time: May 30, 2016 at 7:32:42 PM

Latest Report: May 30, 2016 at 6:50 PM


Visibility: N/A

Pressure: 30.04 "Hg

Humidity: 56%

Dew Point: 50 °F

Location of TauntonLocation

Past Weather in Taunton — Graph

°F

Taunton Temperature Yesterday

Maximum temperature yesterday: 68 °F (at 1:50 PM)
Minimum temperature yesterday: 50 °F (at 4:50 AM)
Average temperature yesterday: 60 °F

High & Low Weather Summary for the Past Weeks

 TemperatureHumidityPressure
High68 °F (May 27, 3:50 PM)100% (May 17, 2:50 AM)30.21 "Hg (May 17, 2:50 AM)
Low36 °F (May 26, 4:50 AM)42% (May 24, 12:50 PM)29.59 "Hg (May 18, 9:50 AM)
Average55 °F78%29.96 "Hg
* Reported May 15 5:50 PM — May 30 5:50 PM, Taunton, Weather by CustomWeather, © 2016

Note: Actual official high and low records may vary slightly from our data, if they occured in-between our weather recording intervals... More about our weather records

Advertising

Taunton Weather History for the Previous 24 Hours

Scroll right to see more
 ConditionsComfort  
Time TempWeatherWind HumidityBarometerVisibility
5:50 PM
Mon, May 30
66 °FPartly sunny.15 mph56%30.04 "HgN/A
4:50 PM64 °FPartly sunny.14 mph60%30.04 "HgN/A
3:50 PM64 °FPartly sunny.16 mph64%30.04 "HgN/A
2:50 PM66 °FScattered clouds.14 mph60%30.04 "HgN/A
1:50 PM64 °FScattered clouds.16 mph64%30.04 "HgN/A
12:50 PM63 °FPassing clouds.15 mph68%30.04 "HgN/A
11:50 AM61 °FPartly sunny.10 mph72%30.04 "HgN/A
10:50 AM59 °FPartly sunny.10 mph77%30.04 "HgN/A
9:50 AM57 °FOvercast.10 mph77%30.04 "HgN/A
8:50 AM54 °FLow clouds.7 mph88%30.04 "HgN/A
7:50 AM52 °FLow clouds.8 mph94%30.04 "Hg5 mi
6:50 AM52 °FPartly sunny.9 mph94%30.04 "Hg4 mi
5:50 AM52 °FCool.7 mph88%30.01 "HgN/A
4:50 AM52 °FCool.5 mph88%30.01 "HgN/A
3:50 AM54 °FCool.7 mph82%30.01 "HgN/A
2:50 AM54 °FCool.6 mph82%30.01 "HgN/A
1:50 AM54 °FCool.7 mph82%30.01 "HgN/A
12:50 AM52 °FCool.3 mph88%30.01 "HgN/A
11:50 PM
Sun, May 29
54 °FCool.6 mph82%30.01 "HgN/A
10:50 PM57 °FCool.5 mph77%29.98 "HgN/A
8:50 PM61 °FCool.9 mph72%29.95 "HgN/A
7:50 PM64 °FMild.10 mph64%29.95 "HgN/A
Weather by CustomWeather, © 2016

See weather overviewHow to use our weather pages